Orbital Elements at Epoch 2459000.5 (2020-May-31.0) TDB
Reference: JPL 18 (heliocentric ecliptic J2000)
Element | Value | Uncertainty (1-sigma) | Units |
e | .4315688081803314 | 3.9663e-08 | |
a | 2.629660179772093 | 2.1253e-08 | au |
q | 1.494780870068575 | 1.0847e-07 | au |
i | 28.18005418340956 | 1.0351e-05 | deg |
node | 327.6082483486364 | 1.4572e-05 | deg |
peri | 109.0605952408408 | 3.2008e-05 | deg |
M | 198.2804246273033 | 1.3417e-05 | deg |
tp | 2459700.193699829703 (2022-Apr-30.69369983) | 5.5975e-05 | TDB |
period | 1557.571069291961 4.26 | 1.8882e-05 5.17e-08 | d yr |
n | .2311291003649987 | 2.8019e-09 | deg/d |
Q | 3.764539489475612 | 3.0425e-08 | au |
|
| | Orbit Determination Parameters
Additional Information
|